Location: Unspecified
(0.0000°N, 0.0000°E)
Time: 08:50:44
(UTC+00:00)

deb Briz - Pass Details

Date: 16 February 2026
Orbit: 1949 x 2166 km, 64.8° (Epoch: 9 March)

Event Time Altitude Azimuth Distance (km) Brightness Sun altitude
Rises 05:01:38 0° 351° (N) 5,569 ? -17.7°
Reaches altitude 10° 05:05:11 10° 356° (N) 4,594 ? -16.8°
Maximum altitude 05:16:45 51° 70° (ENE) 2,563 ? -14.0°
Drops below altitude 10° 05:28:29 10° 142° (SE) 4,686 ? -11.1°
Sets 05:32:05 0° 146° (SSE) 5,688 ? -10.3°
